SCD 2
Last updated on Sun Jun 21 2026 00:02:51 GMT+0000 (Coordinated Universal Time)
1 25504U 98060A 26171.07540117 .00000341 00000+0 44252-4 0 9999
2 25504 24.9960 54.3455 0016856 153.1205 320.9038 14.45526782460747
Next 0 passes for location: London (51.5072 / 0.1276)
No passes found over London.